Current weather by "City, St" or "zip code"  
 

Current Conditions: Reidsville, Rockingham County NC Shiloh Airport, NC

Overcast


65.0 F

Last Updated on Sep 18 2020, 2:55 am EDT
Humidity: 99%
Wind Speed: N 8.1 mph
Barometer 29.83 in
Dewpoint: 64.9 F
Visibility: 10.00 mi
Precip: --
Heat Index: NA
Wind Chill: NA
Current conditions at:

Reidsville, Rockingham County NC Shiloh Airport, NC (KSIF)

Lat: 36.43722 Lon: 79.85083

Local Radar Image active severe weather and emergency alerts image image weather storm and storm spotter reports image weather observation monitoring service image
Local
Radar
Active
Alerts
Storm Reports Obs
Monitoring

Sign-up For Email & Text Message Weather Alert Notification Services



Advertise Here

Observation History for Reidsville, Rockingham County NC Shiloh Airport, NC


Time Wind
(mph)
Vis
(mi)
Weather Precip (in) Temperature (F) Relative
Humidity
Wind
Chill
(F)
Heat
Index
(F)
Pressure
Air Dwpt altimeter
(in)
sea level
(mb)
Rmks
2:55 am EDT N 8.1 10.00 Overcast -- 65.0 64.9 99% NA NA 29.83 M
1:55 am EDT N 4.6 10.00 Overcast -- 65.0 65.3 100% NA NA 29.85 M
12:55 am EDT N 5.8 10.00 Overcast -- 65.0 64.9 100% NA NA 29.85 M
11:55 pm EDT N 6.9 7.00 Light Rain 00.02 65.0 64.9 100% NA NA 29.86 M
10:55 pm EDT N 5.8 5.00 Drizzle 00.01 65.0 65.3 100% NA NA 29.87 M
9:55 pm EDT NE 5.8 10.00 Overcast -- 65.0 65.3 100% NA NA 29.87 M
8:55 pm EDT NE 5.8 5.00 Drizzle -- 65.0 65.3 100% NA NA 29.88 M
7:55 pm EDT N 6.9 2.50 Heavy Rain 00.12 65.0 65.3 100% NA NA 29.87 M
6:55 pm EDT N 6.9 4.00 Rain 00.08 65.0 65.3 100% NA NA 29.87 M
5:55 pm EDT NE 4.6 7.00 Rain -- 65.0 65.5 100% NA NA 29.87 M
4:55 pm EDT N 6.9 7.00 Light Rain 00.16 65.0 65.5 100% NA NA 29.88 M
3:55 pm EDT N 5.8 7.00 Rain -- 66.0 65.7 100% NA NA 29.90 M
2:55 pm EDT N 8.1 7.00 Light Rain -- 66.0 65.7 100% NA NA 29.92 M
1:55 pm EDT N 5.8 5.00 Rain -- 65.0 65.3 100% NA NA 29.95 M
12:55 pm EDT N 6.9 3.00 Rain 00.31 65.0 64.6 100% NA NA 29.98 M
11:55 am EDT N 4.6 5.00 Rain -- 64.0 64.4 100% NA NA 30.01 M
10:55 am EDT N 4.6 4.00 Light Rain -- 64.0 63.7 100% NA NA 30.02 M
9:55 am EDT N 0.0 3.00 Rain -- 63.0 62.8 100% NA NA 30.02 M
8:55 am EDT N 3.5 3.00 Light Rain 00.06 62.0 62.2 100% NA NA 30.01 M
7:55 am EDT NE 4.6 3.00 Light Rain 00.07 62.0 61.7 100% 62 NA 30.02 M
6:55 am EDT NE 3.5 2.50 Rain -- 62.0 61.7 100% NA NA 30.02 M
5:55 am EDT N 0.0 5.00 Rain -- 62.0 61.5 100% NA NA 30.03 M
4:55 am EDT N 4.6 2.00 Fog/Mist -- 61.0 61.3 100% 61 NA 30.04 M
4:35 am EDT N 3.5 2.00 Light Rain -- 61.0 61.3 100% NA NA 30.04 M

Regional Weather Observation


Reidsville, Rockingham County NC Shiloh Airport, NC (KSIF)

Overcast
65.0 F

Mount Airy/Surry County Airport, NC (KMWK)

Overcast
67.0 F

Winston Salem, Smith Reynolds Airport, NC (KINT)

Overcast
65.0 F

Greensboro, Piedmont Triad International Airport, NC (KGSO)

Light Rain Fog/Mist
65.0 F

Hillsville, VA (KHLX)

Overcast
61.0 F

Danville, Danville Regional Airport, VA (KDAN)

Light Rain
67.0 F